QPF
0.00 0.00 0.00 0.00 0.01 0.08 0.11 0.04 0.01 0.00 0.00 0.00 0.00 0.00 0.01 0.02 0.06 0.09 0.01 0.00 0.00 0.00 0.00 0.00 0.00 0.00 0.00 0.01 0.02 0.03 0.03 0.04 0.04 0.03 0.02 0.02 0.01 0.01 0.00 0.00 0.00 0.01 0.01 0.01 0.01 0.01 0.01 0.02 0.01
0.00 0.00 0.00 0.00 0.03 0.18 0.23 0.07 0.03 0.01 0.00 0.00 0.00 0.00 0.01 0.00 0.00 0.00 0.00 0.00 0.00 0.00 0.00 0.00 0.00 0.00 0.00 0.00 0.01 0.02 0.02 0.03 0.03 0.03 0.02 0.02 0.01 0.01 0.02 0.01 0.00 0.01 0.01 0.02 0.01 0.01 0.01 0.01 0.00
0.00 0.00 0.00 0.00 0.02 0.07 0.10 0.04 0.02 0.00 0.00 0.00 0.00 0.00 0.00 0.00 0.00 0.00 0.00 0.00 0.00 0.00 0.00 0.00 0.00 0.00 0.00 0.00 0.01 0.01 0.02 0.03 0.03 0.03 0.02 0.02 0.01 0.01 0.01 0.01 0.00 0.01 0.01 0.01 0.01 0.01 0.02 0.01 0.00
0.00 0.00 0.00 0.00 0.01 0.01 0.01 0.01 0.00 0.00 0.00 0.00 0.00 0.01 0.00 0.00 0.00 0.00 0.00 0.00 0.00 0.00 0.00 0.00 0.00 0.00 0.00 0.00 0.00 0.01 0.02 0.02 0.02 0.02 0.02 0.02 0.01 0.01 0.01 0.01 0.01 0.01 0.02 0.02 0.01 0.01 0.01 0.01 0.00
0.00 0.00 0.00 0.01 0.02 0.02 0.01 0.01 0.01 0.01 0.01 0.01 0.02 0.03 0.01 0.00 0.00 0.00 0.00 0.00 0.00 0.00 0.00 0.00 0.00 0.00 0.00 0.00 0.00 0.01 0.01 0.01 0.02 0.02 0.02 0.01 0.01 0.01 0.01 0.01 0.01 0.02 0.02 0.02 0.01 0.01 0.01 0.01 0.00
0.00 0.00 0.00 0.01 0.02 0.01 0.01 0.01 0.01 0.01 0.03 0.07 0.04 0.06 0.07 0.01 0.00 0.00 0.00 0.00 0.00 0.00 0.00 0.00 0.00 0.00 0.00 0.00 0.00 0.01 0.01 0.01 0.01 0.01 0.01 0.01 0.01 0.01 0.01 0.01 0.01 0.01 0.01 0.01 0.01 0.01 0.01 0.01 0.00
0.00 0.00 0.00 0.00 0.00 0.00 0.00 0.01 0.02 0.04 0.07 0.06 0.03 0.08 0.12 0.03 0.00 0.00 0.00 0.00 0.00 0.00 0.00 0.00 0.00 0.00 0.00 0.00 0.00 0.00 0.00 0.01 0.01 0.01 0.01 0.01 0.01 0.01 0.01 0.01 0.01 0.01 0.01 0.01 0.01 0.01 0.01 0.00 0.00
0.00 0.00 0.00 0.00 0.00 0.00 0.00 0.00 0.01 0.12 0.08 0.01 0.02 0.08 0.14 0.07 0.00 0.00 0.00 0.00 0.01 0.03 0.02 0.01 0.02 0.02 0.01 0.01 0.00 0.00 0.01 0.01 0.01 0.01 0.01 0.01 0.01 0.01 0.02 0.02 0.02 0.01 0.01 0.01 0.01 0.01 0.01 0.01 0.00
0.00 0.00 0.00 0.00 0.00 0.00 0.00 0.00 0.01 0.04 0.04 0.02 0.02 0.06 0.15 0.09 0.01 0.00 0.00 0.01 0.02 0.08 0.05 0.02 0.02 0.02 0.03 0.02 0.03 0.01 0.02 0.02 0.02 0.03 0.03 0.03 0.05 0.08 0.11 0.08 0.07 0.04 0.02 0.01 0.02 0.02 0.01 0.01 0.01
0.00 0.00 0.00 0.00 0.00 0.00 0.00 0.02 0.06 0.06 0.07 0.11 0.10 0.05 0.09 0.07 0.01 0.00 0.00 0.01 0.01 0.01 0.02 0.02 0.03 0.03 0.02 0.04 0.07 0.07 0.07 0.10 0.07 0.11 0.11 0.09 0.11 0.11 0.11 0.16 0.11 0.05 0.03 0.03 0.04 0.03 0.02 0.02 0.05
0.00 0.00 0.00 0.00 0.00 0.00 0.00 0.02 0.09 0.12 0.20 0.25 0.15 0.07 0.03 0.02 0.01 0.00 0.00 0.01 0.01 0.01 0.02 0.03 0.04 0.05 0.05 0.08 0.10 0.10 0.11 0.14 0.10 0.11 0.12 0.16 0.19 0.13 0.11 0.15 0.15 0.12 0.08 0.09 0.12 0.09 0.07 0.07 0.10
0.00 0.00 0.00 0.00 0.00 0.00 0.01 0.03 0.09 0.17 0.32 0.36 0.22 0.11 0.03 0.02 0.02 0.01 0.02 0.02 0.02 0.02 0.03 0.03 0.04 0.06 0.06 0.06 0.06 0.07 0.08 0.09 0.09 0.15 0.15 0.22 0.28 0.24 0.27 0.26 0.21 0.19 0.17 0.16 0.16 0.15 0.12 0.09 0.09
0.00 0.00 0.00 0.00 0.00 0.00 0.01 0.07 0.13 0.17 0.22 0.26 0.17 0.07 0.05 0.05 0.05 0.02 0.02 0.03 0.03 0.02 0.02 0.03 0.05 0.07 0.07 0.07 0.08 0.06 0.11 0.14 0.14 0.17 0.17 0.18 0.22 0.24 0.32 0.31 0.27 0.22 0.18 0.17 0.18 0.16 0.17 0.15 0.11
0.00 0.00 0.00 0.00 0.00 0.00 0.03 0.12 0.09 0.09 0.15 0.16 0.10 0.07 0.11 0.16 0.17 0.10 0.05 0.04 0.05 0.04 0.05 0.06 0.06 0.07 0.07 0.08 0.09 0.10 0.09 0.11 0.13 0.15 0.16 0.16 0.20 0.22 0.21 0.19 0.20 0.19 0.18 0.18 0.18 0.17 0.19 0.17 0.14
0.00 0.00 0.01 0.01 0.00 0.00 0.03 0.10 0.08 0.05 0.14 0.18 0.21 0.11 0.13 0.20 0.25 0.19 0.08 0.07 0.07 0.07 0.09 0.09 0.09 0.09 0.08 0.10 0.10 0.13 0.11 0.10 0.14 0.13 0.12 0.13 0.15 0.18 0.18 0.17 0.18 0.17 0.16 0.17 0.16 0.18 0.20 0.16 0.16
0.00 0.01 0.03 0.03 0.02 0.01 0.05 0.23 0.12 0.10 0.15 0.17 0.24 0.20 0.21 0.17 0.20 0.18 0.11 0.08 0.08 0.10 0.12 0.12 0.09 0.10 0.11 0.10 0.09 0.08 0.07 0.07 0.07 0.08 0.09 0.07 0.08 0.10 0.12 0.14 0.12 0.11 0.09 0.11 0.12 0.15 0.17 0.16 0.15
0.01 0.02 0.06 0.07 0.06 0.03 0.13 0.35 0.26 0.24 0.17 0.11 0.13 0.18 0.19 0.16 0.15 0.15 0.11 0.08 0.09 0.09 0.11 0.12 0.11 0.10 0.06 0.04 0.04 0.04 0.05 0.04 0.04 0.04 0.05 0.04 0.04 0.07 0.07 0.08 0.07 0.06 0.06 0.07 0.06 0.08 0.09 0.11 0.11
0.00 0.01 0.02 0.04 0.04 0.03 0.13 0.25 0.24 0.20 0.13 0.09 0.09 0.10 0.13 0.11 0.09 0.10 0.10 0.09 0.12 0.08 0.07 0.07 0.06 0.05 0.04 0.04 0.05 0.05 0.04 0.03 0.03 0.03 0.03 0.02 0.02 0.02 0.03 0.04 0.04 0.03 0.02 0.03 0.03 0.04 0.04 0.04 0.04
0.00 0.01 0.03 0.04 0.04 0.08 0.15 0.21 0.17 0.14 0.09 0.08 0.11 0.12 0.10 0.08 0.06 0.07 0.08 0.09 0.12 0.08 0.06 0.07 0.05 0.03 0.04 0.04 0.05 0.05 0.04 0.03 0.02 0.01 0.01 0.01 0.01 0.01 0.01 0.02 0.03 0.02 0.02 0.02 0.02 0.02 0.02 0.02 0.03
0.01 0.02 0.05 0.06 0.04 0.06 0.10 0.12 0.10 0.08 0.05 0.07 0.11 0.16 0.09 0.06 0.05 0.05 0.06 0.04 0.04 0.03 0.03 0.03 0.04 0.03 0.04 0.04 0.04 0.04 0.04 0.02 0.01 0.01 0.01 0.01 0.01 0.01 0.01 0.02 0.02 0.02 0.03 0.03 0.04 0.04 0.03 0.02 0.03
0.01 0.01 0.01 0.02 0.02 0.03 0.06 0.09 0.07 0.03 0.04 0.07 0.07 0.07 0.05 0.03 0.03 0.02 0.02 0.02 0.02 0.02 0.02 0.04 0.05 0.04 0.04 0.03 0.03 0.03 0.02 0.01 0.01 0.01 0.02 0.01 0.00 0.01 0.02 0.02 0.02 0.03 0.03 0.03 0.04 0.04 0.04 0.03 0.03
0.01 0.00 0.00 0.01 0.05 0.12 0.08 0.12 0.05 0.03 0.03 0.03 0.03 0.02 0.02 0.01 0.01 0.01 0.00 0.01 0.01 0.01 0.02 0.03 0.03 0.03 0.02 0.02 0.02 0.02 0.02 0.02 0.02 0.01 0.01 0.02 0.01 0.01 0.01 0.02 0.03 0.03 0.02 0.03 0.03 0.03 0.04 0.04 0.03
0.00 0.00 0.00 0.01 0.04 0.08 0.06 0.10 0.07 0.03 0.02 0.01 0.00 0.00 0.01 0.01 0.00 0.00 0.00 0.00 0.00 0.01 0.01 0.02 0.03 0.03 0.02 0.01 0.01 0.02 0.02 0.01 0.01 0.01 0.01 0.02 0.01 0.01 0.01 0.03 0.03 0.04 0.02 0.03 0.03 0.03 0.03 0.03 0.03
0.00 0.01 0.03 0.05 0.10 0.14 0.06 0.06 0.08 0.05 0.02 0.00 0.00 0.00 0.00 0.01 0.01 0.00 0.00 0.00 0.00 0.00 0.01 0.01 0.02 0.03 0.02 0.01 0.01 0.02 0.01 0.01 0.01 0.01 0.01 0.01 0.01 0.01 0.01 0.02 0.03 0.03 0.03 0.03 0.03 0.03 0.02 0.02 0.03
0.01 0.05 0.14 0.18 0.21 0.14 0.04 0.03 0.04 0.05 0.02 0.01 0.00 0.00 0.00 0.01 0.00 0.00 0.00 0.00 0.00 0.00 0.00 0.00 0.02 0.03 0.02 0.01 0.01 0.01 0.01 0.01 0.01 0.02 0.01 0.01 0.00 0.00 0.00 0.01 0.01 0.02 0.02 0.02 0.02 0.02 0.02 0.02 0.03
0.00 0.01 0.05 0.07 0.08 0.06 0.02 0.02 0.02 0.02 0.01 0.00 0.00 0.00 0.01 0.02 0.02 0.00 0.00 0.00 0.00 0.00 0.00 0.00 0.01 0.01 0.01 0.01 0.01 0.02 0.01 0.01 0.01 0.01 0.01 0.01 0.00 0.00 0.00 0.00 0.00 0.00 0.01 0.01 0.01 0.01 0.01 0.01 0.02
0.00 0.00 0.00 0.01 0.02 0.04 0.03 0.02 0.02 0.00 0.00 0.00 0.00 0.00 0.00 0.00 0.00 0.00 0.00 0.00 0.00 0.00 0.00 0.00 0.00 0.01 0.01 0.01 0.01 0.01 0.01 0.01 0.01 0.00 0.00 0.00 0.00 0.00 0.00 0.00 0.00 0.00 0.01 0.01 0.01 0.01 0.01 0.01 0.02
0.00 0.00 0.00 0.01 0.02 0.05 0.06 0.03 0.02 0.01 0.00 0.00 0.00 0.00 0.00 0.00 0.00 0.00 0.00 0.00 0.00 0.00 0.00 0.00 0.00 0.01 0.00 0.00 0.00 0.00 0.00 0.00 0.00 0.00 0.00 0.00 0.00 0.00 0.00 0.00 0.01 0.01 0.01 0.01 0.01 0.01 0.01 0.02 0.02
0.00 0.00 0.00 0.00 0.00 0.02 0.07 0.04 0.03 0.02 0.00 0.00 0.00 0.00 0.00 0.00 0.00 0.00 0.00 0.00 0.00 0.00 0.00 0.00 0.00 0.00 0.00 0.00 0.00 0.00 0.00 0.00 0.00 0.00 0.00 0.00 0.00 0.00 0.01 0.01 0.01 0.01 0.01 0.01 0.02 0.02 0.02 0.02 0.02
0.00 0.00 0.00 0.00 0.00 0.00 0.01 0.02 0.01 0.01 0.00 0.00 0.00 0.00 0.00 0.00 0.00 0.00 0.00 0.00 0.00 0.00 0.00 0.00 0.00 0.00 0.00 0.00 0.00 0.00 0.00 0.00 0.00 0.00 0.00 0.00 0.00 0.01 0.01 0.01 0.01 0.01 0.01 0.01 0.02 0.01 0.01 0.02 0.02
MSLP
1008.45 1009.19 1009.99 1010.67 1011.05 1011.02 1010.54 1009.64 1008.47 1007.22 1006.09 1005.26 1004.82 1004.79 1005.11 1005.66 1006.31 1006.93 1007.45 1007.84 1008.15 1008.45 1008.80 1009.27 1009.86 1010.54 1011.24 1011.90 1012.44 1012.86 1013.14 1013.35 1013.54 1013.76 1014.07 1014.45 1014.88 1015.31 1015.68 1015.96 1016.13 1016.20 1016.23 1016.25 1016.31 1016.43 1016.59 1016.77 1016.93
1008.63 1009.42 1010.19 1010.74 1010.94 1010.68 1009.96 1008.88 1007.59 1006.29 1005.18 1004.42 1004.07 1004.13 1004.53 1005.12 1005.80 1006.43 1006.97 1007.42 1007.82 1008.24 1008.74 1009.35 1010.07 1010.84 1011.59 1012.25 1012.77 1013.13 1013.38 1013.55 1013.73 1013.97 1014.28 1014.67 1015.10 1015.50 1015.83 1016.06 1016.18 1016.23 1016.25 1016.29 1016.38 1016.53 1016.72 1016.92 1017.08
1008.85 1009.64 1010.31 1010.69 1010.66 1010.18 1009.27 1008.06 1006.72 1005.46 1004.45 1003.82 1003.61 1003.78 1004.23 1004.84 1005.49 1006.09 1006.61 1007.08 1007.55 1008.08 1008.72 1009.48 1010.32 1011.18 1011.98 1012.65 1013.14 1013.47 1013.67 1013.82 1013.98 1014.21 1014.53 1014.91 1015.31 1015.67 1015.95 1016.11 1016.19 1016.21 1016.22 1016.28 1016.40 1016.59 1016.82 1017.04 1017.19
1009.07 1009.79 1010.31 1010.48 1010.23 1009.53 1008.48 1007.21 1005.91 1004.78 1003.96 1003.52 1003.47 1003.75 1004.25 1004.84 1005.42 1005.94 1006.40 1006.85 1007.35 1007.96 1008.72 1009.61 1010.58 1011.52 1012.37 1013.04 1013.51 1013.79 1013.96 1014.08 1014.23 1014.45 1014.76 1015.13 1015.49 1015.80 1016.02 1016.13 1016.16 1016.15 1016.16 1016.24 1016.41 1016.64 1016.90 1017.13 1017.28
1009.23 1009.84 1010.16 1010.10 1009.63 1008.77 1007.63 1006.39 1005.21 1004.28 1003.70 1003.50 1003.64 1004.03 1004.55 1005.09 1005.57 1005.97 1006.32 1006.71 1007.21 1007.88 1008.73 1009.72 1010.78 1011.80 1012.67 1013.34 1013.78 1014.03 1014.16 1014.26 1014.39 1014.62 1014.92 1015.27 1015.61 1015.88 1016.05 1016.11 1016.10 1016.08 1016.10 1016.20 1016.40 1016.66 1016.95 1017.19 1017.33
1009.30 1009.73 1009.84 1009.56 1008.90 1007.92 1006.77 1005.61 1004.63 1003.96 1003.65 1003.71 1004.04 1004.53 1005.06 1005.52 1005.87 1006.12 1006.35 1006.66 1007.12 1007.81 1008.71 1009.78 1010.90 1011.95 1012.84 1013.49 1013.90 1014.11 1014.22 1014.30 1014.43 1014.66 1014.97 1015.33 1015.65 1015.90 1016.03 1016.06 1016.03 1015.99 1016.02 1016.14 1016.37 1016.66 1016.97 1017.22 1017.35
1009.26 1009.49 1009.39 1008.91 1008.09 1007.06 1005.95 1004.95 1004.20 1003.80 1003.78 1004.08 1004.58 1005.15 1005.67 1006.04 1006.25 1006.35 1006.45 1006.65 1007.07 1007.74 1008.66 1009.76 1010.91 1011.97 1012.84 1013.47 1013.85 1014.03 1014.11 1014.19 1014.34 1014.58 1014.92 1015.28 1015.61 1015.85 1015.97 1015.98 1015.94 1015.90 1015.94 1016.08 1016.32 1016.64 1016.95 1017.20 1017.33
1009.10 1009.15 1008.85 1008.22 1007.32 1006.29 1005.28 1004.45 1003.94 1003.82 1004.06 1004.56 1005.20 1005.82 1006.30 1006.58 1006.65 1006.61 1006.58 1006.69 1007.05 1007.69 1008.61 1009.70 1010.84 1011.88 1012.72 1013.31 1013.65 1013.81 1013.88 1013.97 1014.14 1014.42 1014.78 1015.17 1015.52 1015.76 1015.89 1015.90 1015.86 1015.83 1015.87 1016.02 1016.27 1016.59 1016.90 1017.14 1017.26
1008.87 1008.76 1008.33 1007.61 1006.69 1005.71 1004.84 1004.21 1003.93 1004.04 1004.48 1005.13 1005.86 1006.49 1006.92 1007.11 1007.07 1006.91 1006.78 1006.81 1007.11 1007.71 1008.59 1009.65 1010.75 1011.74 1012.54 1013.08 1013.38 1013.53 1013.60 1013.70 1013.90 1014.22 1014.61 1015.03 1015.41 1015.67 1015.81 1015.83 1015.80 1015.77 1015.82 1015.97 1016.22 1016.52 1016.82 1017.04 1017.15
1008.61 1008.40 1007.91 1007.18 1006.31 1005.45 1004.73 1004.28 1004.20 1004.48 1005.06 1005.80 1006.55 1007.16 1007.53 1007.63 1007.51 1007.27 1007.06 1007.04 1007.28 1007.84 1008.67 1009.67 1010.70 1011.63 1012.36 1012.85 1013.13 1013.26 1013.34 1013.46 1013.69 1014.04 1014.47 1014.92 1015.32 1015.60 1015.76 1015.80 1015.78 1015.77 1015.81 1015.95 1016.18 1016.46 1016.73 1016.93 1017.02
1008.39 1008.16 1007.68 1007.02 1006.26 1005.54 1004.99 1004.71 1004.77 1005.17 1005.81 1006.56 1007.29 1007.84 1008.15 1008.18 1008.00 1007.71 1007.47 1007.41 1007.62 1008.12 1008.89 1009.81 1010.75 1011.60 1012.26 1012.70 1012.95 1013.07 1013.16 1013.31 1013.56 1013.93 1014.39 1014.85 1015.27 1015.57 1015.75 1015.81 1015.81 1015.81 1015.85 1015.98 1016.18 1016.43 1016.66 1016.82 1016.88
1008.26 1008.08 1007.69 1007.16 1006.55 1006.00 1005.61 1005.48 1005.63 1006.07 1006.71 1007.42 1008.07 1008.56 1008.80 1008.78 1008.57 1008.28 1008.03 1007.96 1008.13 1008.58 1009.26 1010.09 1010.93 1011.68 1012.27 1012.66 1012.88 1013.00 1013.10 1013.26 1013.53 1013.91 1014.36 1014.83 1015.25 1015.56 1015.76 1015.85 1015.87 1015.88 1015.93 1016.05 1016.22 1016.42 1016.61 1016.72 1016.75
1008.27 1008.19 1007.93 1007.56 1007.14 1006.76 1006.52 1006.49 1006.69 1007.12 1007.70 1008.33 1008.89 1009.29 1009.47 1009.43 1009.23 1008.95 1008.72 1008.65 1008.80 1009.18 1009.77 1010.49 1011.22 1011.87 1012.37 1012.72 1012.92 1013.03 1013.14 1013.31 1013.57 1013.94 1014.37 1014.82 1015.23 1015.55 1015.76 1015.88 1015.93 1015.97 1016.04 1016.14 1016.29 1016.45 1016.58 1016.65 1016.63
1008.43 1008.46 1008.35 1008.14 1007.90 1007.68 1007.56 1007.60 1007.81 1008.20 1008.69 1009.21 1009.67 1009.99 1010.14 1010.10 1009.93 1009.70 1009.50 1009.44 1009.55 1009.87 1010.36 1010.95 1011.56 1012.11 1012.54 1012.84 1013.03 1013.14 1013.25 1013.41 1013.65 1013.98 1014.37 1014.78 1015.16 1015.48 1015.71 1015.85 1015.95 1016.03 1016.12 1016.23 1016.36 1016.49 1016.58 1016.59 1016.53
1008.69 1008.81 1008.84 1008.79 1008.69 1008.60 1008.58 1008.65 1008.85 1009.16 1009.55 1009.97 1010.34 1010.61 1010.75 1010.74 1010.62 1010.44 1010.29 1010.24 1010.32 1010.56 1010.94 1011.40 1011.89 1012.34 1012.71 1012.97 1013.15 1013.27 1013.37 1013.52 1013.72 1014.00 1014.33 1014.68 1015.02 1015.32 1015.56 1015.75 1015.90 1016.03 1016.16 1016.29 1016.42 1016.52 1016.57 1016.55 1016.44
1008.99 1009.18 1009.30 1009.36 1009.38 1009.39 1009.42 1009.51 1009.67 1009.91 1010.21 1010.53 1010.84 1011.08 1011.22 1011.27 1011.22 1011.11 1011.01 1010.97 1011.01 1011.17 1011.44 1011.78 1012.15 1012.51 1012.82 1013.06 1013.24 1013.36 1013.47 1013.59 1013.76 1013.97 1014.22 1014.51 1014.80 1015.08 1015.33 1015.56 1015.76 1015.95 1016.13 1016.29 1016.42 1016.51 1016.54 1016.49 1016.36
1009.27 1009.48 1009.65 1009.78 1009.88 1009.95 1010.01 1010.09 1010.21 1010.38 1010.60 1010.85 1011.11 1011.34 1011.52 1011.63 1011.66 1011.64 1011.59 1011.55 1011.56 1011.64 1011.80 1012.03 1012.30 1012.59 1012.86 1013.09 1013.27 1013.41 1013.52 1013.63 1013.74 1013.89 1014.07 1014.28 1014.51 1014.77 1015.03 1015.29 1015.54 1015.79 1016.02 1016.22 1016.37 1016.47 1016.48 1016.42 1016.27
1009.47 1009.67 1009.86 1010.03 1010.17 1010.28 1010.35 1010.41 1010.49 1010.59 1010.74 1010.93 1011.16 1011.40 1011.62 1011.80 1011.91 1011.96 1011.96 1011.94 1011.92 1011.93 1012.00 1012.14 1012.34 1012.57 1012.82 1013.05 1013.26 1013.42 1013.54 1013.63 1013.71 1013.80 1013.90 1014.04 1014.22 1014.44 1014.70 1014.98 1015.29 1015.58 1015.86 1016.09 1016.27 1016.37 1016.39 1016.33 1016.19
1009.55 1009.74 1009.95 1010.15 1010.32 1010.45 1010.52 1010.56 1010.59 1010.62 1010.69 1010.83 1011.02 1011.26 1011.51 1011.75 1011.95 1012.07 1012.12 1012.12 1012.09 1012.06 1012.07 1012.14 1012.28 1012.48 1012.72 1012.98 1013.21 1013.41 1013.56 1013.65 1013.70 1013.73 1013.77 1013.85 1013.97 1014.16 1014.41 1014.71 1015.04 1015.37 1015.68 1015.94 1016.13 1016.24 1016.27 1016.22 1016.10
1009.55 1009.74 1009.97 1010.21 1010.42 1010.58 1010.66 1010.67 1010.63 1010.58 1010.57 1010.63 1010.76 1010.98 1011.24 1011.52 1011.78 1011.96 1012.07 1012.10 1012.08 1012.03 1012.01 1012.05 1012.16 1012.36 1012.61 1012.90 1013.18 1013.42 1013.60 1013.70 1013.74 1013.74 1013.73 1013.75 1013.83 1013.98 1014.21 1014.50 1014.84 1015.18 1015.50 1015.77 1015.97 1016.09 1016.13 1016.11 1016.02
1009.49 1009.74 1010.03 1010.34 1010.61 1010.80 1010.88 1010.85 1010.74 1010.60 1010.47 1010.41 1010.46 1010.61 1010.85 1011.14 1011.43 1011.67 1011.83 1011.91 1011.92 1011.90 1011.88 1011.92 1012.04 1012.24 1012.52 1012.85 1013.18 1013.47 1013.69 1013.81 1013.85 1013.84 1013.80 1013.78 1013.81 1013.93 1014.13 1014.40 1014.72 1015.06 1015.37 1015.63 1015.82 1015.94 1015.99 1015.98 1015.93
1009.46 1009.80 1010.19 1010.60 1010.95 1011.19 1011.28 1011.21 1011.01 1010.74 1010.46 1010.26 1010.17 1010.21 1010.38 1010.64 1010.95 1011.23 1011.45 1011.60 1011.67 1011.70 1011.72 1011.79 1011.93 1012.17 1012.48 1012.85 1013.22 1013.56 1013.81 1013.97 1014.03 1014.01 1013.96 1013.92 1013.92 1014.00 1014.16 1014.40 1014.69 1015.00 1015.28 1015.52 1015.69 1015.79 1015.84 1015.84 1015.82
1009.49 1009.96 1010.49 1011.02 1011.47 1011.76 1011.85 1011.73 1011.42 1011.01 1010.56 1010.17 1009.91 1009.81 1009.88 1010.08 1010.38 1010.69 1010.98 1011.20 1011.36 1011.46 1011.56 1011.68 1011.87 1012.14 1012.49 1012.89 1013.30 1013.67 1013.96 1014.15 1014.23 1014.23 1014.18 1014.13 1014.11 1014.15 1014.28 1014.48 1014.72 1014.98 1015.22 1015.42 1015.55 1015.63 1015.67 1015.67 1015.67
1009.61 1010.21 1010.89 1011.54 1012.08 1012.42 1012.51 1012.33 1011.92 1011.34 1010.71 1010.13 1009.68 1009.42 1009.37 1009.50 1009.77 1010.12 1010.47 1010.78 1011.04 1011.25 1011.43 1011.62 1011.86 1012.17 1012.54 1012.96 1013.39 1013.78 1014.10 1014.32 1014.43 1014.45 1014.41 1014.35 1014.32 1014.34 1014.43 1014.58 1014.77 1014.98 1015.17 1015.31 1015.41 1015.46 1015.47 1015.47 1015.47
1009.78 1010.50 1011.29 1012.04 1012.65 1013.03 1013.10 1012.87 1012.35 1011.63 1010.83 1010.07 1009.45 1009.03 1008.86 1008.93 1009.18 1009.56 1009.98 1010.39 1010.76 1011.07 1011.35 1011.62 1011.91 1012.25 1012.63 1013.05 1013.48 1013.88 1014.21 1014.44 1014.57 1014.61 1014.59 1014.54 1014.50 1014.50 1014.55 1014.65 1014.79 1014.95 1015.08 1015.18 1015.24 1015.26 1015.24 1015.23 1015.22
1009.94 1010.73 1011.59 1012.39 1013.03 1013.42 1013.47 1013.18 1012.59 1011.76 1010.84 1009.94 1009.18 1008.65 1008.40 1008.41 1008.66 1009.07 1009.57 1010.08 1010.55 1010.97 1011.34 1011.68 1012.01 1012.36 1012.75 1013.15 1013.56 1013.94 1014.26 1014.50 1014.64 1014.70 1014.69 1014.65 1014.61 1014.59 1014.61 1014.67 1014.76 1014.86 1014.95 1015.01 1015.03 1015.02 1014.98 1014.94 1014.91
1010.01 1010.81 1011.65 1012.45 1013.08 1013.44 1013.47 1013.15 1012.51 1011.64 1010.65 1009.68 1008.86 1008.28 1007.99 1007.99 1008.25 1008.71 1009.27 1009.87 1010.45 1010.96 1011.41 1011.80 1012.16 1012.51 1012.87 1013.24 1013.61 1013.96 1014.26 1014.49 1014.64 1014.71 1014.71 1014.68 1014.63 1014.60 1014.59 1014.61 1014.66 1014.71 1014.76 1014.79 1014.78 1014.74 1014.68 1014.62 1014.57
1009.94 1010.66 1011.43 1012.15 1012.72 1013.03 1013.04 1012.71 1012.07 1011.21 1010.24 1009.30 1008.50 1007.93 1007.66 1007.69 1007.99 1008.49 1009.12 1009.79 1010.44 1011.03 1011.53 1011.96 1012.33 1012.66 1012.99 1013.31 1013.63 1013.94 1014.20 1014.42 1014.56 1014.63 1014.65 1014.62 1014.57 1014.53 1014.49 1014.48 1014.49 1014.51 1014.52 1014.52 1014.49 1014.44 1014.36 1014.29 1014.21
1009.70 1010.28 1010.91 1011.50 1011.96 1012.21 1012.19 1011.87 1011.30 1010.52 1009.65 1008.81 1008.10 1007.62 1007.42 1007.51 1007.87 1008.43 1009.11 1009.83 1010.53 1011.15 1011.68 1012.12 1012.48 1012.79 1013.08 1013.35 1013.61 1013.87 1014.10 1014.28 1014.42 1014.49 1014.51 1014.49 1014.45 1014.39 1014.34 1014.30 1014.27 1014.25 1014.24 1014.21 1014.17 1014.11 1014.03 1013.94 1013.84
1009.33 1009.74 1010.19 1010.61 1010.94 1011.10 1011.06 1010.78 1010.29 1009.64 1008.93 1008.26 1007.71 1007.37 1007.28 1007.45 1007.87 1008.47 1009.18 1009.92 1010.63 1011.27 1011.81 1012.24 1012.59 1012.87 1013.11 1013.33 1013.54 1013.74 1013.93 1014.10 1014.22 1014.29 1014.32 1014.31 1014.26 1014.20 1014.13 1014.07 1014.02 1013.97 1013.93 1013.88 1013.83 1013.76 1013.67 1013.58 1013.48
Thickness
5842 5843 5842 5835 5821 5807 5796 5820 5852 5858 5865 5874 5876 5868 5851 5839 5826 5812 5848 5857 5847 5835 5826 5819 5814 5810 5806 5803 5800 5796 5793 5789 5786 5783 5780 5778 5775 5773 5770 5768 5767 5765 5763 5762 5760 5758 5757 5756 5755
5846 5846 5839 5831 5814 5790 5787 5819 5842 5856 5870 5879 5875 5866 5851 5842 5849 5847 5851 5851 5844 5833 5825 5818 5811 5807 5804 5800 5797 5794 5791 5787 5784 5781 5779 5776 5774 5771 5769 5767 5765 5763 5762 5760 5758 5757 5755 5754 5753
5844 5847 5833 5829 5820 5803 5803 5833 5851 5865 5877 5875 5866 5862 5849 5840 5848 5849 5851 5851 5842 5832 5822 5813 5809 5804 5801 5797 5794 5791 5788 5785 5782 5779 5777 5774 5772 5769 5767 5765 5763 5762 5760 5758 5757 5755 5754 5753 5751
5840 5838 5833 5826 5822 5837 5838 5849 5859 5863 5868 5873 5863 5845 5845 5855 5855 5854 5855 5849 5837 5828 5819 5810 5806 5802 5798 5795 5791 5788 5785 5783 5780 5777 5775 5772 5770 5767 5765 5763 5761 5760 5758 5757 5755 5754 5752 5751 5750
5838 5829 5818 5816 5830 5847 5854 5857 5860 5858 5854 5860 5856 5832 5830 5851 5859 5856 5852 5845 5835 5826 5816 5808 5803 5799 5795 5791 5788 5785 5782 5780 5777 5775 5772 5770 5768 5765 5763 5761 5759 5758 5756 5755 5753 5752 5750 5749 5748
5826 5826 5808 5811 5834 5849 5855 5860 5858 5852 5851 5852 5844 5824 5816 5843 5848 5850 5849 5844 5838 5826 5815 5805 5800 5796 5792 5788 5785 5782 5779 5777 5774 5772 5769 5767 5765 5763 5761 5759 5757 5756 5754 5753 5751 5750 5749 5747 5746
5815 5812 5808 5819 5832 5843 5854 5862 5851 5845 5840 5846 5847 5821 5814 5828 5843 5848 5846 5843 5836 5826 5814 5804 5798 5793 5789 5785 5782 5779 5776 5774 5771 5769 5766 5764 5763 5761 5759 5757 5755 5754 5752 5750 5749 5748 5747 5746 5745
5827 5812 5807 5821 5829 5840 5857 5857 5855 5844 5838 5856 5851 5819 5806 5819 5840 5844 5841 5838 5831 5821 5813 5805 5799 5793 5788 5784 5780 5777 5774 5771 5769 5766 5764 5762 5760 5758 5757 5755 5753 5751 5750 5748 5747 5746 5745 5744 5743
5829 5801 5798 5817 5825 5836 5850 5843 5848 5852 5841 5842 5844 5829 5818 5825 5836 5834 5830 5826 5821 5816 5811 5807 5800 5793 5789 5785 5780 5775 5772 5769 5766 5764 5761 5759 5758 5757 5755 5753 5749 5748 5747 5746 5745 5745 5744 5743 5742
5817 5796 5807 5826 5831 5832 5835 5833 5834 5831 5821 5819 5818 5820 5819 5821 5824 5823 5820 5815 5811 5807 5807 5806 5800 5794 5790 5786 5779 5775 5772 5769 5765 5764 5760 5757 5755 5754 5752 5751 5748 5746 5745 5744 5743 5743 5742 5741 5742
5815 5804 5815 5824 5831 5831 5825 5823 5828 5815 5796 5794 5797 5804 5813 5813 5815 5816 5814 5810 5806 5805 5803 5801 5797 5791 5788 5783 5777 5775 5773 5768 5765 5762 5759 5756 5753 5751 5749 5747 5745 5743 5742 5741 5741 5739 5739 5740 5741
5812 5813 5818 5819 5826 5820 5815 5815 5812 5803 5790 5796 5802 5805 5809 5809 5809 5809 5806 5803 5801 5800 5797 5795 5792 5787 5783 5780 5776 5773 5770 5766 5764 5759 5755 5752 5749 5747 5745 5743 5742 5741 5740 5740 5739 5737 5737 5738 5739
5811 5813 5819 5822 5822 5817 5812 5805 5799 5789 5795 5798 5799 5801 5804 5804 5805 5806 5805 5800 5796 5793 5791 5789 5786 5781 5777 5774 5771 5768 5764 5761 5758 5756 5753 5748 5745 5743 5741 5738 5738 5737 5737 5737 5735 5734 5734 5734 5734
5812 5813 5812 5814 5812 5810 5802 5799 5794 5786 5791 5788 5790 5794 5796 5796 5793 5793 5791 5790 5788 5787 5784 5782 5778 5775 5771 5767 5763 5761 5760 5757 5754 5751 5748 5744 5742 5739 5737 5736 5735 5734 5733 5732 5731 5730 5730 5730 5730
5816 5802 5798 5802 5804 5799 5791 5774 5773 5781 5783 5779 5782 5786 5787 5789 5785 5781 5782 5783 5783 5781 5780 5777 5773 5771 5766 5762 5758 5756 5755 5753 5750 5747 5744 5740 5738 5735 5733 5733 5732 5731 5730 5729 5729 5727 5726 5726 5727
5802 5790 5776 5790 5795 5789 5774 5742 5762 5779 5774 5770 5774 5775 5777 5778 5780 5779 5778 5778 5778 5776 5774 5772 5770 5765 5760 5758 5755 5753 5752 5749 5747 5744 5740 5737 5735 5733 5730 5729 5729 5728 5727 5726 5725 5724 5722 5721 5721
5787 5776 5771 5774 5786 5781 5762 5739 5756 5769 5768 5768 5771 5768 5768 5769 5771 5773 5774 5774 5774 5772 5769 5765 5763 5759 5756 5754 5752 5751 5749 5747 5745 5742 5738 5734 5732 5730 5728 5726 5725 5724 5723 5723 5722 5719 5716 5715 5715
5784 5784 5774 5768 5779 5774 5755 5741 5751 5761 5765 5767 5768 5765 5762 5764 5766 5770 5771 5771 5770 5768 5764 5761 5758 5756 5754 5751 5748 5747 5746 5745 5742 5739 5735 5731 5729 5727 5724 5723 5721 5720 5719 5717 5715 5713 5712 5711 5711
5799 5787 5772 5770 5781 5770 5758 5746 5749 5758 5762 5764 5764 5762 5760 5762 5766 5768 5767 5766 5764 5761 5759 5758 5755 5753 5751 5747 5744 5741 5740 5740 5739 5737 5733 5729 5726 5723 5721 5718 5717 5715 5713 5712 5710 5708 5705 5705 5707
5796 5782 5772 5773 5780 5769 5758 5752 5757 5759 5765 5766 5762 5761 5760 5762 5762 5763 5763 5762 5760 5758 5757 5755 5752 5751 5748 5745 5742 5739 5737 5736 5737 5734 5730 5727 5723 5719 5717 5713 5710 5709 5707 5705 5704 5701 5698 5698 5701
5791 5784 5778 5774 5774 5769 5756 5747 5750 5759 5767 5765 5764 5765 5765 5764 5761 5761 5762 5761 5760 5758 5756 5755 5751 5749 5746 5743 5741 5738 5734 5732 5730 5728 5725 5722 5719 5715 5712 5709 5706 5703 5701 5699 5697 5696 5693 5690 5692
5784 5797 5791 5776 5758 5741 5744 5725 5745 5754 5756 5759 5763 5767 5767 5767 5765 5763 5763 5761 5760 5759 5757 5753 5749 5746 5743 5740 5736 5731 5727 5723 5723 5722 5721 5718 5715 5712 5709 5705 5702 5698 5695 5693 5691 5692 5688 5686 5683
5795 5799 5785 5769 5750 5737 5741 5733 5743 5754 5752 5760 5767 5770 5769 5769 5767 5765 5765 5763 5763 5761 5757 5752 5747 5743 5739 5735 5732 5727 5722 5720 5719 5717 5714 5712 5711 5709 5706 5703 5698 5694 5690 5688 5686 5684 5682 5680 5678
5807 5792 5771 5756 5735 5717 5739 5739 5734 5748 5758 5766 5771 5773 5772 5771 5769 5768 5768 5766 5763 5761 5757 5752 5744 5739 5735 5731 5728 5723 5718 5714 5711 5709 5707 5706 5706 5705 5703 5700 5694 5689 5686 5683 5680 5679 5677 5675 5673
5797 5770 5739 5721 5709 5721 5759 5752 5745 5766 5777 5777 5775 5775 5774 5773 5770 5767 5766 5763 5760 5757 5754 5749 5741 5735 5732 5728 5724 5720 5715 5711 5708 5705 5703 5700 5698 5697 5695 5692 5687 5683 5680 5677 5675 5673 5671 5669 5667
5796 5784 5749 5733 5728 5741 5762 5755 5765 5785 5790 5789 5786 5781 5777 5774 5771 5768 5766 5763 5759 5756 5752 5746 5739 5732 5729 5725 5721 5717 5713 5710 5707 5703 5699 5696 5693 5691 5689 5686 5682 5679 5675 5672 5670 5666 5665 5664 5661
5795 5793 5800 5776 5761 5744 5750 5762 5772 5788 5787 5787 5783 5780 5776 5775 5773 5770 5767 5763 5758 5754 5748 5744 5736 5730 5726 5723 5719 5715 5711 5707 5703 5699 5696 5693 5690 5687 5684 5680 5677 5673 5670 5667 5663 5660 5658 5656 5654
5810 5804 5793 5775 5749 5728 5732 5746 5753 5768 5775 5781 5780 5778 5778 5778 5775 5772 5767 5763 5759 5754 5748 5742 5735 5729 5725 5721 5717 5715 5709 5705 5701 5697 5692 5688 5685 5682 5678 5675 5671 5667 5664 5661 5657 5654 5652 5650 5647
5798 5795 5789 5783 5775 5744 5718 5731 5773 5777 5783 5783 5783 5784 5782 5780 5777 5772 5767 5764 5759 5753 5747 5740 5735 5729 5725 5721 5716 5711 5707 5703 5699 5694 5691 5687 5682 5678 5673 5669 5665 5662 5658 5655 5651 5648 5645 5643 5641
5801 5798 5789 5766 5764 5769 5754 5748 5792 5791 5794 5791 5788 5788 5787 5783 5779 5774 5768 5762 5756 5751 5746 5740 5735 5730 5725 5721 5716 5710 5705 5700 5695 5692 5688 5684 5679 5674 5670 5665 5661 5656 5653 5649 5645 5641 5639 5636 5633